Tracking 18647 objects as of 29-May-2017
HD Live streaming from Space Station
objects crossing your sky now

EGG

Track EGG now!
10-day predictions
EGG is classified as:


NORAD ID: 41933
Int'l Code: 1998-067KV
Perigee: 394.2 km
Apogee: 400.3 km
Inclination: 51.6 °
Period: 92.4 minutes
Semi major axis: 6768 km
RCS: Unknown
Launch date: November 20, 1998
Source: Japan (JPN)
Launch site: TYURATAM MISSILE AND SPACE COMPLEX (TTMTR)
Uplink (MHz):
Downlink (MHz):
Beacon (MHz):
Mode:
Call sign:
Status:

Your satellite tracking list
Your tracking list is empty





NASA's NSSDC Master Catalog

Two Line Element Set (TLE):
1 41933U 98067KV  17147.87007578 +.00012508 +00000-0 +16291-3 0  9990
2 41933 051.6379 136.9137 0004521 186.1829 173.9109 15.59140950020371
Source of the keplerian elements: AFSPC